Location: Brno
(49.2000°N, 16.6330°E)
Time: 19:22:14
(UTC+02:00)

Vanguard 3 - Pass Details

Date: 03 August 2021
Orbit: 510 x 3260 km, 33.3° (Epoch: 20 September)

Event Time Altitude Azimuth Distance (km) Brightness Sun altitude
Rises 17:35:56 0° 219° (SW) 5,113 11.8 26.6°
Reaches altitude 10° 17:39:17 10° 210° (SSW) 4,474 11.5 26.1°
Maximum altitude 17:50:44 35° 152° (SSE) 3,807 10.5 24.2°
Drops below altitude 10° 18:06:28 10° 97° (E) 6,157 11.1 21.6°
Sets 18:12:05 0° 90° (E) 7,230 11.4 20.7°
